{"data":{"norad_id":48773,"intl_designator":"2021-045G","name":"ONEWEB-0241","alt_names":[],"object_type":"PAYLOAD","status":"ACTIVE","operator":null,"country":"UK","launch_date":"2021-05-28","launch_site_code":"VOSTO","launch_vehicle":null,"mission":null,"orbit_class":"UNKNOWN","rcs_meters":null,"size_class":null,"mass_kg":null,"dimensions":null,"purposes":["comms"],"wikipedia_slug":null,"has_3d_model":false,"image_url":null,"decayed_at":null,"tle_current":{"epoch":"2026-09-19T15:33:53.862912Z","epoch_age_seconds":91869,"freshness":"FRESH","line1":"1 48773U 21045G   26262.64854008  .00000002  00000+0 -27993-4 0  9990","line2":"2 48773  87.8992 240.3693 0001923  74.5006 285.6337 13.15549142256752","mean_motion":13.15549142,"eccentricity":0.0001923,"inclination_deg":87.8992,"raan_deg":240.3693,"arg_perigee_deg":74.5006,"mean_anomaly_deg":285.6337,"bstar":-2.7993e-5,"rev_number":25675,"period_min":109.45999309542,"perigee_km":1200.3108776515,"apogee_km":1203.2261093043,"semimajor_km":7579.9054934779,"source":"CELESTRAK","updated_at":"2026-09-20T09:00:44.616123Z"}}}